www.pogodaiklimat.ru

Погода и климат >> Архив погоды >> Испания >> Сарагоса


ПОГОДА в Сарагосе

  • Прогноз погоды в Сарагосе
  • Монитор погоды в Сарагосе

АРХИВ ПОГОДЫ в Сарагосе

Время (UTC), дата Ветер
(напр.,м/с)
 
Видим.   Явления Облачность Т
(С)
Тd
(С)
f
(%)
Тe
(С)
Тes
(С)
Комфортность P
(гПа)
Po
(гПа)
Тmin
(С)
Tmax
(С)
R
(мм)
R24
(мм)
S
(см)
12 15.05 СЗ 6 >70 км 1/0
[Ci fib]
+26.8 +2.6 21 +25 +32 комфорт 1009.7 980.6
15 15.05 СЗ 10 >70 км 3/0
[Cs]
+30.6 +0.1 14 +28 +28 жарко 1007.1 978.4
18 15.05 СЗ 9 н/о н/о +26.8 +1.2 19 +25 +25 комфорт 1007.5 978.5 +30.8
21 15.05 СЗ 5 35 км 4/0
[Ac trans Cs]
+20.3 +5.9 39 +21 +21 комфорт 1011.2 981.5
00 16.05 В 3 35 км 1/0
[Ci fib]
+13.3 +6.6 64 +12 +12 1014.3 983.8
03 16.05 В 2 35 км 1/0
[Ci fib]
+10.7 +5.2 69 +10 +10 1013.9 983.1
06 16.05 СЗ 1 30 км 4/0
[Ci sp]
+11.7 +4.9 63 +13 +14 1013.8 983.1 +9.9
09 16.05 ЮВ 4 30 км 5/0
[Ac und Ci sp]
+17.9 +4.5 41 +18 +24 1011.8 981.8
12 16.05 В 4 30 км 3/0
[Ci sp]
+22.7 +6.9 36 +23 +35 комфорт 1008.2 978.8
15 16.05 ЮВ 5 30 км 3/1 1500 м
[Cu med, cong Ci sp]
+26.5 +6.0 27 +26 +31 жарко 1003.7 974.8
18 16.05 ЮВ 7 н/о н/о +24.8 +10.6 41 +26 +26 жарко 1001.0 972.0 +27.3
21 16.05 СЗ 6 20 км гроза без осадков 10/10 1000 м
[Cb calv Ac und]
+18.0 +11.8 67 +18 +18 1003.9 974.2
00 17.05 В 5 20 км 10/10 1000 м
[Cb calv As op]
+15.2 +11.4 78 +14 +14 1000.7 970.8 0.0
03 17.05 З 13
{22}
20 км 8/8 600 м
[Frnb As op]
+9.7 +9.2 97 +4 +4 1003.2 972.6 15
06 17.05 СЗ 8
{22}
8000 м в посл. час дождь 10/10 300 м
[Frnb Ns]
+10.2 +9.6 96 +6 +6 1005.4 974.8 +9.4 3
09 17.05 З 6 11 км слаб. дождь 10/10 300 м
[Frnb]
+11.6 +9.8 89 +9 +9 1005.7 975.3 2
12 17.05 СЗ 9 15 км {дождь} 9/6 1000 м
[Sc Ac As Cs]
+13.6 +9.0 74 +11 +11 1007.6 977.3 0.2
15 17.05 СЗ 11 20 км 10/5 1000 м
[Sc Ac As]
+15.2 +6.5 56 +13 +13 1008.4 978.2
18 17.05 СЗ 8 18 км 9/6 1000 м
[Sc Ac As]
+14.1 +6.2 59 +12 +12 1009.9 979.6 +16.2 0.0
21 17.05 З 6 20 км 1/1 1000 м
[Cu hum]
+11.9 +6.8 71 +9 +9 1011.1 980.5
00 18.05 З 4 20 км ясно +10.1 +6.4 78 +7 +7 1011.7 980.9
03 18.05 З 4 20 км 1/1 1000 м
[Cu hum]
+9.5 +5.1 74 +7 +7 1010.6 979.8
06 18.05 СЗ 4 35 км 8/5 1500 м
[Sc Ac und Ci fib]
+10.6 +5.8 72 +8 +8 1010.6 979.9 +9.3 0.0
09 18.05 СЗ 5 35 км 4/1 1500 м
[Sc diur, vesp Ci fib]
+13.8 +3.3 49 +12 +17 1010.7 980.3
12 18.05 СЗ 5 35 км 4/3 1000 м
[Sc diur, vesp Ac cuf Ci fib]
+16.8 +3.1 40 +16 +23 1009.5 979.4
15 18.05 СЗ 6 30 км 6/3 1500 м
[Cu Sc Ac As]
+18.0 +3.5 38 +17 +20 1008.7 978.8
18 18.05 З 7 15 км {дождь} 9/4 1000 м
[Cu med, cong Ac As]
+12.0 +9.7 86 +9 +9 1011.4 980.8 +18.6 1
21 18.05 СЗ 5 25 км 6/5 1000 м
[Cu Sc Ac cuf]
+12.0 +8.5 79 +10 +10 1012.8 982.2
00 19.05 З 3 25 км слаб. дождь 6/3 1500 м
[Cu Sc Ac As]
+10.3 +7.7 84 +8 +8 1012.4 981.6 0.0
03 19.05 З 4 25 км {дождь} 5/0
[Ac As]
+9.9 +7.3 84 +7 +7 1011.4 980.6
06 19.05 З 5 30 км {дождь} 9/6 1000 м
[Cu Sc Ac As Ci sp]
+11.3 +6.6 73 +9 +9 1011.4 980.7 +9.5 0.0
09 19.05 СЗ 8 35 км 9/6 1000 м
[Cu Sc Ac As Ci sp]
+14.0 +6.1 59 +12 +12 1011.9 981.5
12 19.05 СЗ 10 40 км 8/6 1000 м
[Cu Sc Ac As Ci fib]
+16.4 +6.2 51 +15 +15 1011.5 981.4
15 19.05 СЗ 11 40 км 8/6 1000 м
[Cu Sc Ac und Ci fib]
+17.2 +6.4 49 +16 +16 1011.6 981.5
18 19.05 СЗ 8 45 км 4/3 1000 м
[Cu hum Ac lent Ci sp]
+15.7 +6.4 54 +14 +14 1012.4 982.2 +18.5
21 19.05 З 5 30 км 3/0
[Ac lent Ci sp]
+12.6 +7.1 69 +10 +10 1014.7 984.1
00 20.05 СЗ 7 30 км ясно +11.4 +6.5 72 +8 +8 1014.6 983.9
03 20.05 З 8 30 км ясно +10.2 +5.2 71 +6 +6 1014.2 983.3
06 20.05 З 7 25 км ясно +10.7 +5.4 70 +7 +8 1014.8 984.0 +9.3
09 20.05 СЗ 9 35 км ясно +15.1 +5.3 52 +13 +14 1014.9 984.5
12 20.05 СЗ 8 35 км 1/1 1500 м
[Cu med, cong]
+19.3 +3.0 34 +19 +23 1013.6 983.7
15 20.05 СЗ 6 35 км 3/1 1500 м
[Cu med, cong Ci fib]
+21.3 +4.8 34 +22 +26 комфорт 1012.0 982.3
18 20.05 СЗ 5 35 км ясно +21.1 +5.0 35 +22 +22 комфорт 1011.7 982.0 +22.0
21 20.05 З 5 25 км ясно +15.8 +6.5 54 +15 +15 1014.4 984.1
00 21.05 З 4 25 км 1/1 1000 м
[St]
+14.1 +6.7 61 +13 +13 1015.9 985.4
03 21.05 З 4 25 км ясно +11.3 +6.6 73 +9 +9 1015.8 985.0
06 21.05 З 6 >70 км 4/0
[Ci sp]
+11.9 +6.4 69 +9 +10 1016.8 986.0 +10.6
09 21.05 СЗ 5 >70 км 4/0
[Ci sp]
+16.1 +7.0 55 +15 +21 1017.2 986.9
12 21.05 СЗ 5 >70 км 4/1 1000 м
[Cu med, cong Ci fib]
+20.6 +6.2 39 +21 +30 комфорт 1015.6 985.8
15 21.05 СЗ 5 >70 км 4/3 1000 м
[Cu hum Ac cuf Ci fib]
+24.0 +3.8 27 +24 +28 комфорт 1013.9 984.4
18 21.05 СЗ 6 2700 м 4/3
[Cu med, cong Ac cuf Ci sp]
+23.4 +0.5 22 +22 +23 комфорт 1014.0 984.5 +24.9
21 21.05 СЗ 5 30 км 3/0
[Ci fib]
+18.2 +7.3 49 +18 +18 1017.1 987.0
00 22.05 З 4 30 км 1/0
[Ci fib]
+15.4 +6.9 57 +14 +14 1018.0 987.6
03 22.05 З 6 30 км ясно +13.3 +5.9 61 +11 +11 1018.5 987.8
06 22.05 СЗ 4 40 км ясно +13.2 +5.4 59 +12 +12 1019.3 988.6 +12.1
09 22.05 СЗ 5 30 км 1/0
[Ac und]
+16.9 +7.8 55 +16 +22 1019.0 988.7

 

Местоположение метеостанции Сарагоса (Испания): широта 41.67 долгота -1.00 высота над уровнем моря 258 м.

В архиве по умолчанию представлена погода в Сарагосе за последнюю неделю. Архивные данные за месяц целиком и за предыдущие месяцы, начиная с января 2011 года, Вы можете получить, выбрав интересующий диапазон дат из раскрывающегося списка и нажав кнопку "Ввод!".


*Определитесь, кто Вы:
робот инопланетянин человек

Внимание! Время в таблицах - всемирное. Для получения местного времени необходимо прибавить поправку, которая равна 1 ч.

Смотрите также архив погоды в соседних городах и на ближайших метеорологических станциях:

Погода в Сарагоса - Вальдеспарт (Испания) (7 км)
Погода в Калатаюде (Испания) (66 км)
Погода в Барденас-Реалесе (Испания) (71 км)
Погода в Каламоче (Испания) (86 км)
Погода в Каспере (Испания) (91 км)
Погода в Сос-дель-Рей-Католико (Испания) (93 км)
Погода в Альканьисе (Испания) (99 км)
Погода в Каланде (Испания) (102 км)
Погода в Хаке (Испания) (108 км)
Погода в Молина-де-Арагоне (Испания) (117 км)

Пояснения к столбцам:

Ветер - указаны скорость ветра в м/с - средняя за 10 мин, порывы в срок и между сроками (в фигурных скобках) и направление, откуда дует ветер: С - северный, СВ - северо-восточный, В - восточный, ЮВ - юго-восточный, Ю - южный, ЮЗ - юго-западный, З - западный, СЗ - северо-западный.
Видимость - горизонтальная дальность видимости в метрах или километрах. При видимости от 1 до 10 км при отсутствии осадков обычно наблюдается дымка, при ухудшении видимости до 1 км и менее - туман. В сухую погоду видимость может ухудшаться дымом, пылью или мглою.
Явления - указаны атмосферные явления, наблюдавшиеся в срок или в последний час перед сроком; фигурными скобками обозначены явления, наблюдавшиеся между сроками (за 1-3 часа до срока); квадратными скобками обозначены град или гололедные отложения с указанием их диаметра в мм.
Облачность - указаны через наклонную черту общая и нижняя облачность в баллах и высота нижней границы облаков в метрах; квадратными скобками обозначены формы облаков: Ci - перистые, Cs - перисто-слоистые, Cc - перисто-кучевые, Ac - высококучевые, As - высокослоистые, Sc - слоисто-кучевые, Ns - слоисто-дождевые, Cu - кучевые, Cb - кучево-дождевые. Подробнее классификацию облаков см. в Атласе облаков (PDF).
T - Температура воздуха - температура, измеренная на высоте 2 м над землей.
Td - Температура точки росы - температура, при понижении до которой содержащийся в воздухе водяной пар достигнет насыщения.
f - Относительная влажность воздуха - влажноcть воздуха, измеренная на высоте 2 м над землей.
Te - Эффективная температура - температура, которую ощущает одетый по сезону человек в тени. Характеристика душности погоды. При расчете учитывается влияние влажности воздуха и скорости ветра на теплоощущения человека.
Tes - Эффективная температура на солнце - температура, которую ощущает человек, с поправкой на солнечный нагрев. Характеристика знойности погоды. Зависит от высоты солнца над горизонтом, облачности и скорости ветра. Ночью, в пасмурную погоду, а также при ветре 12 м/с и более поправка равна нулю.
P - Атмосферное давление - приведенное к уровню моря атмосферное давление.
Po - Атмосферное давление - измеренное на уровне метеостанции атмосферное давление.
Tmin - Минимальная температура - минимум температуры воздуха на высоте 2 м над землей.
Tmax - Максимальная температура - максимум температуры воздуха на высоте 2 м над землей.
R - Количество осадков - Количество выпавших осадков за период времени, мм. При наведении курсора мыши на число - период времени, за который выпало указанное количество осадков.
R24 - Количество осадков - Количество выпавших осадков за 24 часа, мм.
S - Снежный покров - Высота снежного покрова, см. При наведении курсора мыши на число - состояние снежного покрова и степень покрытия местности в баллах.